time_stamp(utc),avg(mph),gust(mph),direction(deg),12m_air_temp(f),sonic_u(cm/s),sonic_v(cm/s),sonic_w(cm/s),pressure,2m_air_temp(f),pyranometer(W/m^2)
"2016-10-19 00:02:20+00",18.2,21.2,,68.9,-457,-672,-3,1011.86,68.4,0
"2016-10-19 00:07:20+00",18.4,21.4,,69,-459,-685,-13,1011.96,68.4,0
"2016-10-19 00:12:20+00",15.7,17.7,,69,-421,-569,0,1011.97,68.4,0
"2016-10-19 00:17:20+00",16.1,18.1,,69,-468,-560,-1,1012.11,68.3,0
"2016-10-19 00:22:20+00",15.5,19.5,,68.9,-475,-511,-6,1012.18,68.3,0
"2016-10-19 00:27:20+00",15.4,17.4,,68.8,-486,-497,2,1012.26,68.2,0
"2016-10-19 00:32:20+00",15.0,17.0,,68.8,-448,-516,-5,1012.35,68.1,0
"2016-10-19 00:37:20+00",13.3,15.3,,68.7,-392,-459,1,1012.46,68.1,0
"2016-10-19 00:42:20+00",13.5,16.5,,68.8,-432,-409,9,1012.46,68,0
"2016-10-19 00:47:20+00",13.7,15.7,,68.8,-427,-454,-5,1012.48,68.1,0
"2016-10-19 00:52:20+00",12.1,15.1,,68.6,-374,-402,0,1012.55,68,0
"2016-10-19 00:57:20+00",11.4,13.4,,68.6,-335,-401,10,1012.56,67.9,0
"2016-10-19 01:02:20+00",10.6,12.6,,68.6,-315,-363,2,1012.59,67.9,0
"2016-10-19 01:07:20+00",11.8,12.8,,68.6,-326,-426,10,1012.58,67.8,0
"2016-10-19 01:12:20+00",12.1,14.1,,68.5,-320,-443,2,1012.61,67.8,0
"2016-10-19 01:17:20+00",11.6,12.6,,68.5,-287,-436,0,1012.62,67.7,0
"2016-10-19 01:22:20+00",10.7,11.7,,68.3,-251,-400,-2,1012.69,67.5,0
"2016-10-19 01:27:20+00",12.1,13.1,,68.3,-285,-454,-11,1012.71,67.5,0
"2016-10-19 01:32:20+00",12.2,15.2,,68.4,-323,-449,1,1012.72,67.5,0
"2016-10-19 01:37:20+00",12.5,15.5,,68.5,-338,-456,0,1012.71,67.6,0
"2016-10-19 01:42:20+00",12.8,15.8,,68.6,-400,-417,22,1012.8,67.7,0
"2016-10-19 01:47:20+00",14.4,16.4,,68.7,-462,-441,1,1012.95,67.8,0
"2016-10-19 01:52:20+00",15.9,19.9,,68.8,-512,-493,12,1012.88,67.9,0
"2016-10-19 01:57:20+00",16.7,18.7,,68.7,-508,-554,-9,1012.93,68,0
"2016-10-19 02:02:20+00",18.2,21.2,,68.6,-578,-578,4,1013.02,68,0
"2016-10-19 02:07:20+00",17.3,19.3,,68.6,-554,-540,7,1013.05,68,0
"2016-10-19 02:12:20+00",17.1,23.1,,68.7,-537,-552,5,1013.11,68,0
"2016-10-19 02:17:20+00",16.8,18.8,,68.7,-515,-565,2,1013.08,68,0
"2016-10-19 02:22:20+00",15.2,18.2,,68.6,-463,-514,13,1013.06,68,0
"2016-10-19 02:27:20+00",16.7,18.7,,68.6,-507,-575,5,1013.11,68,0
"2016-10-19 02:32:20+00",15.7,17.7,,68.5,-458,-551,1,1013.11,67.9,0
"2016-10-19 02:37:20+00",14.4,17.4,,68.5,-415,-509,14,1013.06,67.9,0
"2016-10-19 02:42:20+00",15.8,16.8,,68.6,-453,-558,1,1013.05,67.9,0
"2016-10-19 02:47:20+00",14.4,16.4,,68.5,-399,-526,3,1013.05,67.9,0
"2016-10-19 02:52:20+00",17.3,20.3,,68.5,-509,-603,0,1013.07,67.9,0
"2016-10-19 02:57:20+00",16.9,18.9,,68.5,-439,-620,-2,1013.07,67.9,0
"2016-10-19 03:02:20+00",15.5,19.5,,68.4,-457,-550,20,1013.08,67.9,0
"2016-10-19 03:07:20+00",15.9,18.9,,68.4,-446,-568,6,1013.06,67.9,0
"2016-10-19 03:12:20+00",16.4,18.4,,68.6,-467,-586,-5,1013.02,67.9,0
"2016-10-19 03:17:20+00",14.9,16.9,,68.6,-425,-534,-3,1013.03,67.9,0
"2016-10-19 03:22:20+00",16.0,19.0,,68.5,-441,-580,13,1012.95,67.9,0
"2016-10-19 03:27:20+00",17.2,19.2,,68.4,-501,-606,-3,1013.03,67.9,0
"2016-10-19 03:32:20+00",17.7,19.7,,68.4,-516,-626,-5,1012.8,67.9,0
"2016-10-19 03:37:20+00",17.8,20.8,,68.4,-495,-649,0,1012.92,67.9,0
"2016-10-19 03:42:20+00",16.2,18.2,,68.5,-415,-605,-6,1012.87,67.9,0
"2016-10-19 03:47:20+00",12.6,15.6,,68.4,-253,-488,7,1012.83,67.8,0
"2016-10-19 03:52:20+00",14.8,16.8,,68.4,-344,-561,-5,1012.82,67.7,0
"2016-10-19 03:57:20+00",14.9,17.9,,68.6,-391,-545,9,1012.83,67.8,0
"2016-10-19 04:02:20+00",16.3,20.3,,68.5,-472,-590,3,1012.78,67.8,0
"2016-10-19 04:07:20+00",14.9,17.9,,68.6,-412,-545,-1,1012.78,67.9,0
"2016-10-19 04:12:20+00",14.9,16.9,,68.7,-409,-543,1,1012.81,68,0
"2016-10-19 04:17:20+00",15.9,19.9,,68.5,-445,-582,17,1012.78,67.9,0
"2016-10-19 04:22:20+00",14.1,16.1,,68.2,-428,-471,19,1012.8,67.7,0
"2016-10-19 04:27:20+00",16.5,19.5,,68.2,-469,-580,6,1012.72,67.7,0
"2016-10-19 04:32:20+00",16.0,18.0,,68.3,-382,-606,0,1012.53,67.7,0
"2016-10-19 04:37:20+00",14.2,17.2,,68.1,-366,-531,3,1012.37,67.6,0
"2016-10-19 04:42:20+00",15.8,18.8,,68,-431,-568,-14,1012.48,67.5,0
"2016-10-19 04:47:20+00",16.2,20.2,,68.2,-473,-566,-6,1012.44,67.5,0
"2016-10-19 04:52:20+00",16.4,19.4,,68.3,-516,-525,5,1012.42,67.6,0
"2016-10-19 04:57:20+00",18.7,21.7,,68.6,-603,-558,19,1012.43,67.7,0
"2016-10-19 05:02:20+00",18.4,21.4,,68.8,-576,-599,3,1012.39,67.9,0
"2016-10-19 05:07:20+00",17.1,22.1,,68.6,-522,-573,7,1012.47,67.9,0
"2016-10-19 05:12:20+00",16.3,17.3,,68.3,-475,-573,-4,1012.47,67.8,0
"2016-10-19 05:17:20+00",16.6,18.6,,68.4,-489,-574,6,1012.46,67.7,0
"2016-10-19 05:22:20+00",17.9,20.9,,68.5,-561,-600,22,1012.39,67.8,0
"2016-10-19 05:27:20+00",18.5,20.5,,68.6,-586,-591,-2,1012.5,67.9,0
"2016-10-19 05:32:20+00",15.2,18.2,,68.4,-470,-514,8,1012.44,67.8,0
"2016-10-19 05:37:20+00",15.5,17.5,,68.2,-475,-511,0,1012.54,67.7,0
"2016-10-19 05:42:20+00",16.6,18.6,,68.3,-516,-550,2,1012.48,67.7,0
"2016-10-19 05:47:20+00",16.4,19.4,,68.3,-516,-520,9,1012.6,67.7,0
"2016-10-19 05:52:20+00",15.1,18.1,,68.2,-485,-469,15,1012.57,67.6,0
"2016-10-19 05:57:20+00",16.7,19.7,,68.2,-536,-510,4,1012.55,67.6,0
"2016-10-19 06:02:20+00",16.7,19.7,,68.3,-535,-517,-4,1012.55,67.6,0
"2016-10-19 06:07:20+00",14.3,16.3,,68.2,-454,-443,6,1012.57,67.6,0
"2016-10-19 06:12:20+00",13.9,15.9,,68.1,-455,-426,14,1012.61,67.5,0
"2016-10-19 06:17:20+00",16.8,18.8,,68.2,-548,-499,3,1012.59,67.5,0
"2016-10-19 06:22:20+00",14.9,17.9,,68.3,-480,-451,15,1012.5,67.5,0
"2016-10-19 06:27:20+00",15.7,17.7,,68.2,-498,-490,-10,1012.54,67.5,0
"2016-10-19 06:32:20+00",13.4,14.4,,68.1,-427,-418,12,1012.6,67.5,0
"2016-10-19 06:37:20+00",13.4,16.4,,68.1,-434,-429,14,1012.54,67.5,0
"2016-10-19 06:42:20+00",13.4,15.4,,68,-420,-431,10,1012.54,67.4,0
"2016-10-19 06:47:20+00",14.8,16.8,,68,-472,-458,1,1012.42,67.4,0
"2016-10-19 06:52:20+00",13.8,15.8,,68,-439,-437,4,1012.43,67.3,0
"2016-10-19 06:57:20+00",12.7,14.7,,67.9,-394,-408,6,1012.47,67.3,0
"2016-10-19 07:02:20+00",12.8,13.8,,67.9,-397,-406,-1,1012.44,67.3,0
"2016-10-19 07:07:20+00",11.7,13.7,,67.8,-370,-368,9,1012.47,67.2,0
"2016-10-19 07:12:20+00",13.3,14.3,,67.8,-424,-402,-12,1012.4,67.1,0
"2016-10-19 07:17:20+00",11.9,14.9,,67.7,-375,-378,2,1012.41,67.1,0
"2016-10-19 07:22:20+00",11.7,13.7,,67.6,-364,-383,3,1012.21,67,0
"2016-10-19 07:27:20+00",13.2,15.2,,67.7,-424,-407,4,1012.22,67,0
"2016-10-19 07:32:20+00",12.3,15.3,,67.7,-384,-397,6,1012.18,67,0
"2016-10-19 07:37:20+00",11.7,12.7,,67.7,-361,-388,-4,1012.27,67,0
"2016-10-19 07:42:20+00",11.2,13.2,,67.6,-353,-353,12,1012.25,67,0
"2016-10-19 07:47:20+00",11.7,13.7,,67.6,-368,-366,-8,1012.16,66.9,0
"2016-10-19 07:52:20+00",9.7,11.7,,67.5,-300,-312,3,1012.27,66.8,0
"2016-10-19 07:57:20+00",8.9,9.9,,67.4,-298,-244,11,1012.22,66.8,0
"2016-10-19 08:02:20+00",8.6,10.6,,67.3,-287,-244,6,1012.12,66.7,0
"2016-10-19 08:07:20+00",10.9,12.9,,67.4,-363,-298,-7,1012.09,66.7,0
"2016-10-19 08:12:20+00",9.6,11.6,,67.5,-325,-263,5,1012.16,66.7,0
"2016-10-19 08:17:20+00",9.0,10.0,,67.4,-307,-242,10,1012.13,66.7,0
"2016-10-19 08:22:20+00",9.1,11.1,,67.4,-304,-251,7,1012.08,66.6,0
"2016-10-19 08:27:20+00",9.2,11.2,,67.3,-282,-291,-12,1012.18,66.6,0
"2016-10-19 08:32:20+00",9.6,11.6,,67.2,-309,-286,5,1012.14,66.5,0
"2016-10-19 08:37:20+00",9.5,12.5,,67.1,-317,-268,6,1012.25,66.5,0
"2016-10-19 08:42:20+00",8.1,11.1,,67.1,-280,-211,11,1012.26,66.4,0
"2016-10-19 08:47:20+00",7.6,10.6,,67.1,-285,-185,15,1012.26,66.4,0
"2016-10-19 08:52:20+00",9.0,11.0,,67.1,-325,-232,14,1012.31,66.4,0
"2016-10-19 08:57:20+00",10.0,13.0,,67.1,-372,-241,14,1012.25,66.3,0
"2016-10-19 09:02:20+00",8.8,9.8,,67,-345,-199,18,1012.31,66.3,0
"2016-10-19 09:07:20+00",8.7,9.7,,67,-332,-203,3,1012.34,66.2,0
"2016-10-19 09:12:20+00",9.0,11.0,,66.9,-321,-230,12,1012.32,66.2,0
"2016-10-19 09:17:20+00",10.7,11.7,,66.9,-363,-291,13,1012.29,66.1,0
"2016-10-19 09:22:20+00",9.8,10.8,,66.9,-354,-253,12,1012.41,66.1,0
"2016-10-19 09:27:20+00",9.6,11.6,,66.9,-330,-252,4,1012.42,66.1,0
"2016-10-19 09:32:20+00",9.8,11.8,,66.9,-332,-271,20,1012.44,66.1,0
"2016-10-19 09:37:20+00",10.7,12.7,,66.9,-368,-281,-3,1012.48,66.1,0
"2016-10-19 09:42:20+00",9.9,11.9,,66.8,-330,-278,5,1012.52,66.1,0
"2016-10-19 09:47:20+00",10.9,12.9,,66.8,-378,-292,14,1012.57,66.1,0
"2016-10-19 09:52:20+00",9.8,11.8,,66.7,-378,-226,9,1012.61,66,0
"2016-10-19 09:57:20+00",10.1,12.1,,66.7,-399,-223,10,1012.68,66,0
"2016-10-19 10:02:20+00",8.0,9.0,,66.6,-321,-178,23,1012.72,65.9,0
"2016-10-19 10:07:20+00",10.0,11.0,,66.7,-393,-229,18,1012.88,65.9,0
"2016-10-19 10:12:20+00",9.6,11.6,,66.7,-379,-218,25,1012.97,65.9,0
"2016-10-19 10:17:20+00",9.9,10.9,,66.6,-393,-227,10,1013.05,65.8,0
"2016-10-19 10:22:20+00",9.6,10.6,,66.6,-369,-224,12,1013.1,65.8,0
"2016-10-19 10:27:20+00",9.6,10.6,,66.5,-381,-214,15,1013.01,65.7,0
"2016-10-19 10:32:20+00",9.2,10.2,,66.4,-377,-199,16,1013.02,65.7,0
"2016-10-19 10:37:20+00",9.4,10.4,,66.4,-388,-202,1,1013.03,65.6,0
"2016-10-19 10:42:20+00",8.6,9.6,,66.4,-345,-194,12,1013.02,65.6,0
"2016-10-19 10:47:20+00",8.3,9.3,,66.3,-347,-177,15,1013.06,65.5,0
"2016-10-19 10:52:20+00",8.0,9.0,,66.3,-311,-186,14,1013.05,65.5,0
"2016-10-19 10:57:20+00",8.0,9.0,,66.2,-323,-173,14,1013.07,65.5,0
"2016-10-19 11:02:20+00",8.2,10.2,,66.2,-294,-205,5,1013.14,65.5,0
"2016-10-19 11:07:20+00",8.5,10.5,,66.2,-333,-198,17,1013.26,65.5,0
"2016-10-19 11:12:20+00",8.0,10.0,,66.2,-307,-189,15,1013.32,65.5,0
"2016-10-19 11:17:20+00",8.5,9.5,,66.2,-319,-199,12,1013.38,65.5,0
"2016-10-19 11:22:20+00",8.2,10.2,,66.2,-335,-173,5,1013.44,65.5,0
"2016-10-19 11:27:20+00",8.6,10.6,,66.3,-324,-202,15,1013.46,65.6,0
"2016-10-19 11:32:20+00",8.9,9.9,,66.3,-337,-216,12,1013.6,65.6,0
"2016-10-19 11:37:20+00",8.8,10.8,,66.3,-334,-212,17,1013.65,65.7,0
"2016-10-19 11:42:20+00",9.7,10.7,,66.4,-376,-220,6,1013.71,65.8,0
"2016-10-19 11:47:20+00",9.2,11.2,,66.4,-385,-195,11,1013.7,65.9,0
"2016-10-19 11:52:20+00",9.2,10.2,,66.5,-402,-167,15,1013.75,65.9,0
"2016-10-19 11:57:20+00",9.4,10.4,,66.4,-401,-197,14,1013.89,66,0.4
"2016-10-19 12:02:20+00",9.7,10.7,,66.5,-411,-203,12,1013.97,66.1,1
"2016-10-19 12:07:20+00",9.4,11.4,,66.6,-391,-202,8,1013.99,66.2,0.8
"2016-10-19 12:12:20+00",8.2,10.2,,66.7,-325,-183,17,1014.09,66.3,10.6
"2016-10-19 12:17:20+00",8.6,10.6,,66.8,-340,-186,14,1014.16,66.6,45.8
"2016-10-19 12:22:20+00",10.3,12.3,,66.8,-402,-233,6,1014.15,66.8,4.1
"2016-10-19 12:27:20+00",8.8,9.8,,66.8,-327,-214,16,1014.29,67,5.9
"2016-10-19 12:32:20+00",8.1,9.1,,66.9,-324,-179,9,1014.44,67.1,10
"2016-10-19 12:37:20+00",7.6,9.6,,66.9,-282,-185,13,1014.44,67.3,9.9
"2016-10-19 12:42:20+00",7.3,9.3,,67,-264,-185,26,1014.53,67.5,18.4
"2016-10-19 12:47:20+00",9.1,11.1,,67.1,-337,-212,6,1014.53,67.7,22.7
"2016-10-19 12:52:20+00",8.8,10.8,,67.2,-317,-216,4,1014.61,68,104.3
"2016-10-19 12:57:20+00",8.2,10.2,,67.5,-328,-180,11,1014.64,68.7,72.2
"2016-10-19 13:02:20+00",7.2,8.2,,67.6,-304,-130,41,1014.59,69.3,120.4
"2016-10-19 13:07:20+00",8.4,10.4,,67.9,-343,-155,28,1014.68,70,135.7
"2016-10-19 13:12:20+00",8.0,9.0,,68.1,-334,-56,27,1014.74,70.5,68.5
"2016-10-19 13:17:20+00",7.8,8.8,,68.1,-321,-68,13,1014.77,70.3,15.7
"2016-10-19 13:22:20+00",7.8,9.8,,68,-340,-134,7,1014.79,69.9,14.6
"2016-10-19 13:27:20+00",6.5,7.5,,68.1,-278,-101,22,1014.93,69.7,29.2
"2016-10-19 13:32:20+00",7.5,8.5,,68.2,-312,-97,16,1014.89,69.5,33.9
"2016-10-19 13:37:20+00",8.0,9.0,,68.4,-333,-62,-3,1014.95,69.6,97.4
"2016-10-19 13:42:20+00",7.5,8.5,,68.6,-313,-78,31,1014.81,69.7,41.8
"2016-10-19 13:47:20+00",7.8,9.8,,68.8,-337,-124,14,1014.85,69.9,192.6
"2016-10-19 13:52:20+00",8.1,11.1,,69.4,-337,-65,24,1014.81,70.5,207.5
"2016-10-19 13:57:20+00",8.7,9.7,,69.9,-375,-53,11,1014.8,71.3,209.6
"2016-10-19 14:02:20+00",9.7,10.7,,70.3,-403,-99,-9,1014.69,71.9,215.7
"2016-10-19 14:07:20+00",8.7,9.7,,70.7,-358,-85,10,1014.78,72.5,218.5
"2016-10-19 14:12:20+00",9.1,10.1,,71,-390,-43,20,1014.75,73,226.7
"2016-10-19 14:17:20+00",9.7,10.7,,71.4,-408,-110,9,1014.75,73.4,229.8
"2016-10-19 14:22:20+00",10.0,11.0,,72.1,-424,-86,46,1014.86,73.9,237
"2016-10-19 14:27:20+00",10.4,12.4,,72.5,-447,-134,31,1014.93,74.3,244
"2016-10-19 14:32:20+00",9.6,11.6,,72.7,-404,-85,28,1014.95,74.6,247.1
"2016-10-19 14:37:20+00",8.7,10.7,,72.9,-374,-12,20,1014.87,75,254.6
"2016-10-19 14:42:20+00",9.0,10.0,,73.3,-393,82,29,1014.87,75.3,258.4
"2016-10-19 14:47:20+00",8.1,10.1,,73.5,-356,35,37,1014.93,75.6,262.2
"2016-10-19 14:52:20+00",8.3,9.3,,73.6,-357,47,10,1014.9,75.9,270.3
"2016-10-19 14:57:20+00",8.1,9.1,,73.6,-354,78,21,1014.93,76.1,282.5
"2016-10-19 15:02:20+00",7.6,8.6,,73.7,-332,64,16,1014.81,76.4,305.2
"2016-10-19 15:07:20+00",7.8,8.8,,73.9,-341,61,13,1014.85,76.7,286.6
"2016-10-19 15:12:20+00",7.0,8.0,,74.1,-306,55,8,1014.86,76.7,294.7
"2016-10-19 15:17:20+00",6.1,7.1,,74.3,-254,50,7,1014.88,77.1,296.5
"2016-10-19 15:22:20+00",6.0,7.0,,74.1,-189,-190,26,1014.87,77.8,290
"2016-10-19 15:27:20+00",5.9,6.9,,74,-186,-169,13,1014.86,78.3,292
"2016-10-19 15:32:20+00",6.8,7.8,,73.9,-130,-203,-6,1014.89,79,294.9
"2016-10-19 15:37:20+00",7.3,8.3,,73.1,-193,-264,3,1014.9,78.2,295.3
"2016-10-19 15:42:20+00",7.9,8.9,,73.1,-229,-271,4,1014.85,77.9,304.6
"2016-10-19 15:47:20+00",8.3,9.3,,73,-237,-294,9,1014.89,77.8,310.6
"2016-10-19 15:52:20+00",8.0,9.0,,72.7,-236,-276,15,1014.86,77.3,333.8
"2016-10-19 15:57:20+00",9.2,10.2,,72.8,-294,-293,17,1014.85,77.3,399
"2016-10-19 16:02:20+00",9.9,11.9,,73,-319,-309,9,1014.88,77.7,352
"2016-10-19 16:07:20+00",10.0,12.0,,73.2,-320,-291,7,1014.86,78.1,361.9
"2016-10-19 16:12:20+00",8.8,9.8,,73.2,-267,-303,16,1014.94,78.3,394
"2016-10-19 16:17:20+00",10.3,10.3,,73.1,-304,-348,-7,1014.89,77.9,357.7
"2016-10-19 16:22:20+00",10.5,11.5,,73.1,-320,-346,-2,1014.92,77.7,335.6
"2016-10-19 16:27:20+00",9.9,10.9,,73.1,-263,-362,4,1014.78,77.4,336.2
"2016-10-19 16:32:20+00",10.5,11.5,,73.2,-261,-388,-1,1014.8,77.2,351.6
"2016-10-19 16:37:20+00",9.7,10.7,,73.2,-228,-365,3,1014.85,76.9,346.6
"2016-10-19 16:42:20+00",10.5,12.5,,73.4,-245,-394,-9,1014.91,76.9,337.2
"2016-10-19 16:47:20+00",10.8,12.8,,73.6,-254,-404,-2,1014.81,76.8,326
"2016-10-19 16:52:20+00",11.0,12.0,,73.7,-275,-411,-5,1014.84,76.8,324.8
"2016-10-19 16:57:20+00",10.5,11.5,,73.8,-238,-395,-5,1014.8,77,328.6
"2016-10-19 17:02:20+00",10.2,11.2,,74,-199,-387,-14,1014.72,77.1,325.7
"2016-10-19 17:07:20+00",8.6,10.6,,74.2,-210,-325,6,1014.63,77.5,333
"2016-10-19 17:12:20+00",8.9,9.9,,74.5,-181,-338,3,1014.47,77.8,326.1
"2016-10-19 17:17:20+00",8.6,9.6,,74.9,-224,-310,5,1014.5,78.3,310.7
"2016-10-19 17:22:20+00",9.4,10.4,,75.2,-243,-346,-1,1014.47,78.7,309.8
"2016-10-19 17:27:20+00",8.8,9.8,,75.5,-206,-329,8,1014.4,79,307.5
"2016-10-19 17:32:20+00",8.1,9.1,,75.8,-219,-300,29,1014.44,79.3,302.5
"2016-10-19 17:37:20+00",9.9,10.9,,76,-188,-382,2,1014.36,79.3,301.4
"2016-10-19 17:42:20+00",9.0,10.0,,76.2,-197,-348,26,1014.27,79.4,307.7
"2016-10-19 17:47:20+00",9.4,10.4,,76.3,-246,-344,-7,1014.23,79.4,275.3
"2016-10-19 17:52:20+00",8.9,9.9,,76.7,-191,-332,-4,1014.27,79.7,311.7
"2016-10-19 17:57:20+00",8.6,9.6,,77,-255,-302,9,1014.22,79.9,161.9
"2016-10-19 18:02:20+00",8.8,9.8,,76.9,-284,-275,18,1014.34,79.6,343.6
"2016-10-19 18:07:20+00",9.0,10.0,,77,-253,-319,-6,1014.29,79.9,337.3
"2016-10-19 18:12:20+00",8.3,9.3,,76.8,-260,-260,0,1014.26,80,139.9
"2016-10-19 18:17:20+00",8.1,9.1,,76.5,-267,-229,12,1014.16,79.8,119
"2016-10-19 18:22:20+00",8.1,9.1,,76.4,-259,-265,-2,1014.18,79.6,263.7
"2016-10-19 18:27:20+00",7.9,8.9,,77.1,-250,-238,18,1014.18,80.1,292.1
"2016-10-19 18:32:20+00",8.3,9.3,,77.6,-277,-223,8,1014.07,81.1,290.7
"2016-10-19 18:37:20+00",8.0,8.0,,77.9,-255,-223,-1,1014.02,81.9,269.5
"2016-10-19 18:42:20+00",7.4,8.4,,78.3,-200,-271,-7,1013.91,82.3,261
"2016-10-19 18:47:20+00",6.9,7.9,,78.5,-158,-264,22,1013.92,81.9,256.5
"2016-10-19 18:52:20+00",7.2,8.2,,78.8,-157,-272,-2,1013.96,81.8,248.2
"2016-10-19 18:57:20+00",7.2,8.2,,78.8,-168,-267,16,1014,81.7,239.2
"2016-10-19 19:02:20+00",6.0,7.0,,78.7,-132,-234,18,1014.04,81.8,236.2
"2016-10-19 19:07:20+00",6.7,7.7,,79,-192,-235,3,1013.99,81.8,230.1
"2016-10-19 19:12:20+00",6.2,7.2,,79.1,-163,-221,11,1014.01,82.1,225.2
"2016-10-19 19:17:20+00",6.2,7.2,,79.4,-193,-198,1,1014.02,82.6,221.8
"2016-10-19 19:22:20+00",5.8,6.8,,79.5,-160,-203,-3,1013.97,82.7,215.8
"2016-10-19 19:27:20+00",5.3,6.3,,79.9,-19,-210,17,1013.99,83,211.9
"2016-10-19 19:32:20+00",4.0,5.0,,80.1,-56,-151,3,1014.02,82.2,205.7
"2016-10-19 19:37:20+00",3.7,4.7,,80,-14,-139,23,1014.02,81.6,201.2
"2016-10-19 19:42:20+00",5.9,6.9,,79.1,43,-241,-13,1014.05,80.6,197.2
"2016-10-19 19:47:20+00",4.1,5.1,,77.9,34,-169,-9,1014.07,79.3,191.5
"2016-10-19 19:52:20+00",4.0,5.0,,78.1,15,-165,-5,1014.1,79.1,180.8
"2016-10-19 19:57:20+00",3.4,4.4,,78.6,33,-131,7,1014.23,79.4,175
"2016-10-19 20:02:20+00",2.5,3.5,,79.2,-35,-79,33,1014.18,79.8,164.9
"2016-10-19 20:07:20+00",4.1,5.1,,79.2,28,-165,-14,1014.19,79.9,157.1
"2016-10-19 20:12:20+00",2.3,3.3,,79.4,-14,-83,4,1014.27,79.7,150.9
"2016-10-19 20:17:20+00",3.0,4.0,,80,-35,-116,7,1014.25,80.1,139.9
"2016-10-19 20:22:20+00",3.4,4.4,,80.1,-28,-123,6,1014.34,80.5,130
"2016-10-19 20:27:20+00",3.5,4.5,,80.2,-17,-134,2,1014.26,80.5,76.7
"2016-10-19 20:32:20+00",4.0,5.0,,79.5,77,-146,-2,1014.43,80.1,108.4
"2016-10-19 20:37:20+00",4.1,5.1,,78.9,80,-149,-7,1014.4,79.6,100.9
"2016-10-19 20:42:20+00",4.3,4.3,,78.5,28,-173,-7,1014.51,79,89.6
"2016-10-19 20:47:20+00",4.7,5.7,,78.1,6,-193,-7,1014.54,78.3,76.3
"2016-10-19 20:52:20+00",4.3,5.3,,78.3,-38,-171,-2,1014.65,78.1,73.3
"2016-10-19 20:57:20+00",3.9,4.9,,78.9,-30,-152,16,1014.57,78.5,65.4
"2016-10-19 21:02:20+00",4.3,5.3,,79.1,-35,-169,3,1014.6,78.7,53.8
"2016-10-19 21:07:20+00",4.4,4.4,,78.6,-8,-176,-1,1014.65,78.5,43.9
"2016-10-19 21:12:20+00",5.3,6.3,,77.5,14,-220,-12,1014.7,77.6,31.6
"2016-10-19 21:17:20+00",5.3,7.3,,77.6,-36,-222,-7,1014.8,77.3,24.2
"2016-10-19 21:22:20+00",4.1,5.1,,77.8,-51,-168,12,1014.9,77.5,16.8
"2016-10-19 21:27:20+00",5.5,6.5,,77.8,-53,-227,-2,1014.92,77.6,11.8
"2016-10-19 21:32:20+00",6.7,7.7,,77.9,-103,-265,-4,1014.93,77.5,0.1
"2016-10-19 21:37:20+00",6.3,8.3,,77.8,-71,-253,2,1014.99,77.5,0
"2016-10-19 21:42:20+00",8.0,9.0,,77.4,-130,-312,-6,1015.07,77.2,0
"2016-10-19 21:47:20+00",7.7,8.7,,77,-127,-296,-8,1015.12,76.7,0
"2016-10-19 21:52:20+00",8.3,9.3,,76.8,-155,-317,-5,1015.1,76.2,0
"2016-10-19 21:57:20+00",7.3,8.3,,76.7,-184,-277,-1,1015.24,75.8,0
"2016-10-19 22:02:20+00",7.1,7.1,,77.2,-185,-239,-2,1015.32,75.3,0
"2016-10-19 22:07:20+00",6.4,6.4,,77.1,-155,-242,-4,1015.33,74.9,0
"2016-10-19 22:12:20+00",6.7,6.7,,76.7,-119,-255,-5,1015.3,74.5,0
"2016-10-19 22:17:20+00",6.1,6.1,,76.3,-88,-240,-5,1015.43,74.3,0
"2016-10-19 22:22:20+00",6.0,7.0,,76.4,-147,-227,-7,1015.5,74.1,0
"2016-10-19 22:27:20+00",6.1,6.1,,76.3,-120,-227,-5,1015.53,73.7,0
"2016-10-19 22:32:20+00",6.6,6.6,,76.3,-172,-236,-5,1015.58,73.3,0
"2016-10-19 22:37:20+00",6.0,7.0,,76.1,-142,-224,-9,1015.63,73,0
"2016-10-19 22:42:20+00",6.4,7.4,,75.6,-164,-231,-3,1015.74,72.8,0
"2016-10-19 22:47:20+00",6.4,7.4,,75.7,-161,-240,-3,1015.9,72.7,0
"2016-10-19 22:52:20+00",6.3,7.3,,75.5,-162,-231,-3,1015.87,72.6,0
"2016-10-19 22:57:20+00",6.0,7.0,,74.3,-125,-222,-10,1015.94,71.6,0
"2016-10-19 23:02:20+00",6.4,6.4,,75.2,-176,-220,-4,1016.03,71.8,0
"2016-10-19 23:07:20+00",6.5,7.5,,75.4,-208,-209,-4,1016.07,71.7,0
"2016-10-19 23:12:20+00",6.6,6.6,,75.1,-173,-225,-2,1016.16,71.5,0
"2016-10-19 23:17:20+00",5.9,5.9,,74.5,-155,-214,-8,1016.11,71.5,0
"2016-10-19 23:22:20+00",7.7,8.7,,74.9,-240,-208,-3,1016.14,71.3,0
"2016-10-19 23:27:20+00",6.6,7.6,,74.8,-213,-211,-5,1016.24,71.1,0
"2016-10-19 23:32:20+00",6.8,7.8,,74.6,-203,-232,-8,1016.21,71.1,0
"2016-10-19 23:37:20+00",7.4,8.4,,74.5,-220,-256,-7,1016.21,71.2,0
"2016-10-19 23:42:20+00",7.1,7.1,,74.4,-205,-246,-6,1016.21,71.4,0
"2016-10-19 23:47:20+00",6.5,7.5,,74.5,-193,-225,-5,1016.22,71.5,0
"2016-10-19 23:52:20+00",6.7,6.7,,74.3,-192,-231,-6,1016.28,71.6,0
"2016-10-19 23:57:20+00",6.4,7.4,,74.5,-215,-219,-3,1016.31,71.5,0
